GW3608 Weather Reports


Display with metric or nautical units.
time (UTC)temp
F
wind
direction
speed
MPH
gust
MPH
rain 1hr
in
rain 24hr
in
rain mn
in
humidity
%
barometer
mb
20260510183017 60 231 2.0 7.0 0.00 0.11 0.07 47 1014.4
20260510181516 59 5 1.0 9.0 0.00 0.12 0.07 56 1014.5
20260510180014 58 276 0.0 5.0 0.00 0.13 0.07 55 1014.3
20260510174518 58 154 0.0 5.0 0.00 0.13 0.07 61 1014.5
20260510173017 56 36 1.0 3.0 0.00 0.13 0.07 62 1014.4
20260510171518 55 271 0.0 3.0 0.00 0.13 0.07 64 1014.8
20260510170021 54 11 0.0 8.0 0.00 0.13 0.07 65 1014.9
20260510164519 54 333 1.0 4.0 0.00 0.13 0.07 70 1014.9
20260510163019 52 262 0.0 4.0 0.00 0.13 0.07 71 1014.9
20260510161520 52 352 1.0 5.0 0.00 0.14 0.07 74 1014.8
20260510160018 51 349 0.0 3.0 0.00 0.14 0.07 80 1014.6
20260510154526 51 328 1.0 4.0 0.00 0.14 0.07 78 1014.7
20260510153022 51 29 0.0 2.0 0.00 0.14 0.07 81 1014.6
20260510151520 51 59 0.0 2.0 0.00 0.15 0.07 80 1014.3
20260510150023 50 75 0.0 4.0 0.00 0.15 0.07 81 1014.2
20260510144530 50 49 0.0 3.0 0.00 0.16 0.07 81 1014.0
20260510143026 50 55 1.0 8.0 0.00 0.18 0.07 81 1013.9
20260510141526 50 40 0.0 4.0 0.00 0.19 0.07 81 1013.7
20260510140005 50 317 1.0 6.0 0.00 0.20 0.07 83 1013.6
20260510134508 50 316 1.0 5.0 0.00 0.21 0.07 85 1013.2
20260510133020 50 79 1.0 5.0 0.00 0.22 0.07 90 1013.0
20260510131520 51 38 1.0 5.0 0.00 0.23 0.07 93 1013.0
20260510130022 51 303 0.0 2.0 0.00 0.25 0.07 94 1013.0
20260510124506 51 163 0.0 2.0 0.00 0.27 0.07 95 1012.8
20260510123013 50 240 0.0 1.0 0.00 0.29 0.07 95 1012.6
20260510121516 50 246 0.0 1.0 0.00 0.31 0.07 95 1012.3
20260510120034 49 122 0.0 0.0 0.00 0.32 0.07 95 1012.2
20260510114522 50 122 0.0 0.0 0.00 0.34 0.07 96 1011.9
20260510113009 49 122 0.0 0.0 0.00 0.35 0.07 95 1011.9
20260510111512 49 122 0.0 0.0 0.00 0.36 0.07 96 1011.6
20260510110024 48 122 0.0 0.0 0.00 0.37 0.07 95 1011.3
20260510104523 47 122 0.0 0.0 0.00 0.39 0.07 95 1010.9
20260510103023 47 122 0.0 0.0 0.00 0.42 0.07 95 1010.8
20260510101511 46 122 0.0 0.0 0.00 0.43 0.07 95 1010.4
20260510100014 47 122 0.0 0.0 0.00 0.44 0.07 95 1010.3
20260510094529 47 122 0.0 0.0 0.00 0.44 0.07 95 1010.3
20260510093024 47 122 0.0 0.0 0.00 0.45 0.07 95 1010.2
20260510091529 47 122 0.0 0.0 0.00 0.45 0.07 95 1010.0
20260510090012 46 122 0.0 0.0 0.00 0.45 0.07 95 1009.9
20260510084514 46 122 0.0 0.0 0.00 0.46 0.07 94 1009.6
20260510083020 46 122 0.0 0.0 0.00 0.46 0.07 94 1009.6
20260510081527 46 122 0.0 0.0 0.00 0.46 0.07 94 1009.6
20260510080029 46 122 0.0 0.0 0.00 0.46 0.07 93 1009.5
20260510074517 47 122 0.0 0.0 0.00 0.46 0.07 93 1009.4
20260510073021 47 122 0.0 1.0 0.00 0.46 0.07 94 1009.2
20260510071525 48 126 0.0 1.0 0.00 0.46 0.07 93 1009.3
20260510070028 48 154 0.0 2.0 0.00 0.46 0.07 94 1009.3
20260510064530 48 242 0.0 0.0 0.00 0.47 0.07 93 1009.2
20260510063019 48 279 0.0 1.0 0.01 0.47 0.07 93 1009.4
20260510061529 49 115 0.0 2.0 0.01 0.48 0.07 93 1009.5
20260510060042 49 240 0.0 4.0 0.02 0.48 0.07 93 1009.5
20260510054528 48 139 0.0 0.0 0.05 0.48 0.07 93 1009.8
20260510053027 49 139 0.0 2.0 0.06 0.47 0.06 92 1010.3
20260510051521 49 201 0.0 0.0 0.06 0.47 0.06 92 1010.6
20260510050005 49 248 0.0 1.0 0.05 0.46 0.05 91 1010.9
20260510044506 50 265 0.0 3.0 0.02 0.43 0.02 90 1010.9
20260510043010 50 263 0.0 3.0 0.00 0.41 0.00 89 1011.2
20260510041516 50 268 0.0 7.0 0.00 0.41 0.00 90 1010.9
20260510040020 50 292 1.0 10.0 0.00 0.41 0.00 91 1010.4
20260510034504 50 198 0.0 1.0 0.00 0.41 0.41 92 1009.5
20260510033009 50 154 0.0 4.0 0.00 0.41 0.41 92 1009.3
20260510031513 50 119 0.0 1.0 0.00 0.41 0.41 91 1009.4
20260510030020 50 149 0.0 1.0 0.00 0.41 0.41 90 1009.5
20260510024520 50 227 0.0 1.0 0.00 0.41 0.41 90 1009.2
20260510023041 51 146 0.0 1.0 0.00 0.41 0.41 90 1009.0
20260510021510 50 151 0.0 2.0 0.00 0.41 0.41 90 1008.9
20260510020016 50 130 0.0 2.0 0.00 0.41 0.41 91 1009.0
20260510014522 50 227 0.0 4.0 0.00 0.41 0.41 91 1008.9
20260510013022 51 173 0.0 1.0 0.00 0.41 0.41 90 1008.8
20260510011526 51 178 0.0 2.0 0.00 0.41 0.41 90 1008.7
20260510010029 51 135 0.0 3.0 0.00 0.41 0.41 90 1008.5
20260510004527 51 192 0.0 2.0 0.00 0.41 0.41 90 1008.3
20260510003024 52 167 0.0 2.0 0.00 0.41 0.41 89 1007.9
20260510001526 53 145 0.0 2.0 0.00 0.41 0.41 89 1008.1
20260510000026 53 144 0.0 6.0 0.00 0.41 0.41 89 1008.0
20260509234527 53 235 0.0 5.0 0.00 0.41 0.41 89 1007.8
20260509233029 53 170 0.0 0.0 0.00 0.41 0.41 89 1007.7
20260509231522 53 164 0.0 2.0 0.00 0.41 0.41 89 1007.5
20260509230024 53 173 0.0 2.0 0.00 0.41 0.41 89 1007.6
20260509224510 53 181 0.0 6.0 0.00 0.41 0.41 90 1007.9
20260509223020 53 266 0.0 4.0 0.00 0.41 0.41 90 1007.9
20260509221524 53 184 1.0 5.0 0.00 0.41 0.41 90 1007.6
20260509220025 52 167 0.0 6.0 0.00 0.41 0.41 91 1007.7
20260509214510 52 139 0.0 3.0 0.00 0.41 0.41 92 1007.8
20260509213016 52 306 0.0 6.0 0.00 0.41 0.41 93 1007.9
20260509211545 52 213 0.0 6.0 0.00 0.41 0.41 94 1008.0
20260509210022 51 251 0.0 5.0 0.00 0.41 0.41 94 1008.2
20260509204526 51 167 0.0 3.0 0.01 0.41 0.41 94 1008.3
20260509203031 51 228 0.0 2.0 0.01 0.41 0.41 95 1008.4
20260509201521 50 111 0.0 2.0 0.01 0.41 0.41 94 1008.5
20260509200025 50 154 0.0 2.0 0.02 0.41 0.41 94 1008.6
20260509194524 50 139 0.0 2.0 0.03 0.40 0.40 94 1008.8
20260509193025 50 169 0.0 3.0 0.03 0.40 0.40 94 1008.9
20260509191519 50 131 0.0 3.0 0.04 0.40 0.40 94 1009.0
20260509190022 50 137 0.0 2.0 0.04 0.39 0.39 93 1009.1
20260509184525 50 192 0.0 3.0 0.02 0.37 0.37 93 1009.1